[[{"header":{"parameterUnit":"m.s-1","parameterCategory":1,"la1":30.2991,"la2":30.254,"lo1":-89.0895,"lo2":-89.0444,"dy":0.0017,"dx":0.0017,"nx":28,"ny":28,"refTime":"2025-07-08T21:00:00:Z","depth":0,"parameterNumber":2,"parameterNumberName":"U-component_of_WINDS"},"data":[0,0,0,0,0,0,0,0,0,0,0,0,0,0,0,0,0,0,0,0,0,0,0,0,0,0,0,0,0,0,0,0,0,0,0,0,0,0,0,0,0,0,0,0,0,0,0,0,0,0,0,0,0,0,0,0,0,0,2.7334,2.7336,0,2.7495,2.7497,2.7498,2.752,2.7519,2.7517,2.7516,2.7681,2.7686,2.7692,0,0,0,0,0,0,0,0,0,0,0,0,0,2.7046,2.7051,2.7334,2.7336,2.7338,2.7494,2.7497,2.7499,2.7521,2.7519,2.7517,2.7515,2.7679,2.7686,2.7693,0,0,0,0,0,0,0,0,0,0,0,0,0,2.7185,2.7053,2.7333,2.7368,2.7372,2.7494,2.7497,2.75,2.7521,2.7519,2.7516,2.7514,2.7677,2.7685,2.7694,2.7793,0,0,2.772,2.7724,0,0,0,0,0,0,0,0,2.7177,2.7196,2.7361,2.7365,2.7371,2.7485,2.7456,2.7598,2.7522,2.7464,2.7516,2.7513,2.7618,2.7631,2.7666,2.78,2.7808,2.7721,2.7726,2.773,2.7732,0,0,0,0,0,0,0,2.7168,2.7189,2.7398,2.7363,2.7369,2.7375,2.7392,2.7483,2.7552,2.7469,2.7471,2.749,2.762,2.7658,2.767,2.781,2.7721,2.7728,2.7734,2.7737,2.8035,2.8038,0,0,0,0,0,0,2.7152,2.7181,2.7392,2.7402,2.7267,2.7382,2.7401,2.7451,2.7551,2.7564,2.7492,2.749,2.7644,2.766,2.7676,2.78,2.773,2.7738,2.7743,2.8032,2.8036,2.8039,0,0,0,0,0,0,2.7145,2.717,2.7386,2.7292,2.732,2.7389,2.7445,2.7455,2.7493,2.7568,2.758,2.7518,2.7643,2.7664,2.7764,2.7806,2.7742,2.775,2.8029,2.8033,2.8037,2.8047,0,0,0,0,0,0,2.7137,2.7168,2.7206,2.7293,2.7325,2.7471,2.7447,2.746,2.7508,2.7508,2.7595,2.7608,2.7643,2.7751,2.7772,2.7816,2.7757,2.8026,2.8031,2.8036,2.8043,2.8051,2.8057,0,0,0,0,0,2.7127,2.7202,2.7208,2.7233,2.7374,2.7473,2.7492,2.753,2.7511,2.755,2.7599,2.7605,2.7797,2.7761,2.7785,2.7833,2.8023,2.803,2.8035,2.804,2.8049,2.8057,0,0,0,0,0,0,2.7119,2.7214,2.7222,2.7328,2.7392,2.7477,2.7527,2.7539,2.761,2.7607,2.7651,2.7671,2.7769,2.7811,2.7768,2.7935,2.7909,2.792,2.7904,2.7913,2.792,2.7908,2.7764,0,0,0,0,0,2.7129,2.7202,2.7281,2.7367,2.7399,2.7458,2.7502,2.7526,2.7595,2.7622,2.7678,2.7744,2.782,2.7869,2.7942,2.8049,2.8069,2.8094,2.8101,2.8106,2.8116,2.8177,2.8189,2.8058,2.8058,2.8058,0,0,2.7152,2.7213,2.7256,2.7367,2.742,2.7494,2.748,2.7559,2.7615,2.7634,2.7733,2.7776,2.7853,2.7957,2.8006,2.7995,2.8156,2.8114,2.8118,2.8125,2.8184,2.8196,2.8207,2.8063,2.8062,2.8061,0,0,2.7231,2.7285,2.7362,2.7416,2.7496,2.7534,2.7553,2.7636,2.7666,2.7765,2.7781,2.7848,2.7977,2.8032,2.8076,2.8177,2.8186,2.8199,2.8237,2.8295,2.8306,2.8315,2.8352,2.8364,2.8208,2.8208,2.8209,0,2.725,2.7362,2.7401,2.748,2.7528,2.7549,2.7629,2.7678,2.7779,2.7812,2.7798,2.7961,2.8014,2.8132,2.8157,2.8192,2.8215,2.819,2.8301,2.8311,2.832,2.8356,2.8369,2.821,2.821,2.8209,2.8209,0,2.7381,2.7458,2.7512,2.7608,2.7662,2.7741,2.7792,2.7843,2.7862,2.7902,2.8003,2.8068,2.8156,2.8185,2.8205,2.8306,2.8297,2.8292,2.8267,2.8333,2.8367,2.8381,2.8211,2.8211,2.8211,2.821,0,0,2.746,2.7577,2.7596,2.764,2.7731,2.7792,2.7871,2.7957,2.8,2.8068,2.8137,2.8246,2.8241,2.8292,2.8318,2.8369,2.8446,2.8358,2.836,2.8373,2.8563,2.8567,2.8582,2.8452,2.8455,2.8457,2.8557,0,2.7551,2.7693,2.7731,2.7852,2.7925,2.7946,2.8016,2.8079,2.8118,2.8186,2.823,2.8307,2.8294,2.8325,2.8377,2.8425,2.8485,2.8419,2.8517,2.852,2.8498,2.86,2.8605,2.8696,2.857,2.8573,2.8574,0,2.7676,2.7747,2.7875,2.7957,2.7989,2.805,2.8132,2.8197,2.8269,2.8294,2.8351,2.8372,2.8456,2.8426,2.8544,2.8498,2.8541,2.8571,2.8575,2.8587,2.8552,2.8615,2.8726,2.874,2.8596,2.8594,2.8593,0,2.7722,2.785,2.7943,2.798,2.8077,2.8121,2.8163,2.8233,2.8282,2.8354,2.8386,2.8467,2.8511,2.8573,2.8616,2.859,2.873,2.8703,2.8754,2.8753,2.8784,2.8781,2.8904,2.8809,2.8809,2.8809,2.8808,0,2.782,2.7898,2.7966,2.8023,2.8112,2.8154,2.8241,2.8284,2.8346,2.8413,2.8435,2.8498,2.855,2.862,2.8653,2.8746,2.8766,2.8789,2.8797,2.8788,2.8785,2.8817,2.8812,2.8812,2.8812,2.8811,2.881,0,2.7887,2.7935,2.8039,2.8122,2.8145,2.8206,2.8278,2.8335,2.8375,2.846,2.8482,2.8545,2.8629,2.8677,2.8782,2.8805,2.8908,2.8913,2.8884,2.8888,2.8936,2.8931,2.9084,2.9107,2.8996,2.8997,2.8998,0,2.7947,2.8007,2.8097,2.8143,2.8186,2.8261,2.8311,2.8355,2.8407,2.8494,2.8541,2.8625,2.8696,2.8828,2.8883,2.8964,2.8972,2.902,2.8984,2.8973,2.8974,2.897,2.8977,2.9026,2.9027,2.9028,2.9028,0,2.8048,2.8069,2.8141,2.8221,2.8281,2.8346,2.8411,2.8448,2.8503,2.856,2.8646,2.87,2.8807,2.8891,2.8977,2.9021,2.9035,2.9039,2.9055,2.9047,2.9028,2.904,2.8902,2.9036,2.9035,2.9034,2.9034,2.9034,2.8114,2.8169,2.8241,2.8321,2.8374,2.8435,2.8493,2.854,2.8612,2.8703,2.8724,2.8814,2.8886,2.9002,2.9048,2.912,2.9112,2.9135,2.9141,2.9146,2.9148,2.9015,2.9135,2.9135,2.9135,2.9135,2.9135,0,2.8218,2.8265,2.8337,2.8428,2.849,2.8497,2.8569,2.8622,2.87,2.8766,2.8834,2.8933,2.9015,2.9077,2.9161,2.9206,2.9214,2.9227,2.9224,2.9235,2.915,2.9128,2.9219,2.9219,2.9219,2.9218,2.9218,2.9218,2.8279,2.8373,2.8402,2.8523,2.857,2.8659,2.87,2.8756,2.8808,2.8917,2.8985,2.9025,2.9089,2.9178,2.9254,2.927,2.93,2.9312,2.9329,2.9249,2.924,2.9232,2.9211,2.9318,2.9318,2.9408,2.9409,2.9409]},{"header":{"parameterUnit":"m.s-1","parameterCategory":1,"la1":30.2991,"la2":30.254,"lo1":-89.0895,"lo2":-89.0444,"dy":0.0017,"dx":0.0017,"nx":28,"ny":28,"refTime":"2025-07-08T21:00:00:Z","depth":0,"parameterNumber":3,"parameterNumberName":"V-component_of_WINDS"},"data":[0,0,0,0,0,0,0,0,0,0,0,0,0,0,0,0,0,0,0,0,0,0,0,0,0,0,0,0,0,0,0,0,0,0,0,0,0,0,0,0,0,0,0,0,0,0,0,0,0,0,0,0,0,0,0,0,0,0,-0.9299,-0.93,0,-0.9385,-0.9386,-0.9387,-0.9419,-0.9419,-0.9419,-0.9418,-0.9503,-0.9505,-0.9508,0,0,0,0,0,0,0,0,0,0,0,0,0,-0.9157,-0.9159,-0.9299,-0.93,-0.9301,-0.9385,-0.9386,-0.9387,-0.9419,-0.9419,-0.9419,-0.9418,-0.9502,-0.9505,-0.9508,0,0,0,0,0,0,0,0,0,0,0,0,0,-0.9228,-0.916,-0.9299,-0.9327,-0.933,-0.9385,-0.9386,-0.9388,-0.9419,-0.9419,-0.9419,-0.9418,-0.9501,-0.9504,-0.9508,-0.9539,0,0,-0.952,-0.9521,0,0,0,0,0,0,0,0,-0.9224,-0.9233,-0.9322,-0.9325,-0.9329,-0.9391,-0.9367,-0.9438,-0.9419,-0.9385,-0.9418,-0.9418,-0.9466,-0.9472,-0.9489,-0.9543,-0.9547,-0.952,-0.9522,-0.9524,-0.9525,0,0,0,0,0,0,0,-0.9219,-0.923,-0.9333,-0.9323,-0.9327,-0.9334,-0.9344,-0.9381,-0.9427,-0.9388,-0.9391,-0.9401,-0.9467,-0.9485,-0.9491,-0.9548,-0.952,-0.9523,-0.9525,-0.9527,-0.9631,-0.9632,0,0,0,0,0,0,-0.921,-0.9226,-0.933,-0.9335,-0.9275,-0.9337,-0.9348,-0.9372,-0.9426,-0.9434,-0.9401,-0.9402,-0.9479,-0.9487,-0.9494,-0.9534,-0.9524,-0.9527,-0.9529,-0.9631,-0.9632,-0.9632,0,0,0,0,0,0,-0.9207,-0.9219,-0.9327,-0.9281,-0.9296,-0.934,-0.9366,-0.9373,-0.9392,-0.9436,-0.9444,-0.9412,-0.9479,-0.9489,-0.9528,-0.9538,-0.9529,-0.9532,-0.963,-0.9631,-0.9632,-0.9614,0,0,0,0,0,0,-0.9203,-0.9218,-0.9231,-0.9281,-0.9298,-0.936,-0.9367,-0.9375,-0.9398,-0.9401,-0.9448,-0.9455,-0.948,-0.9522,-0.9532,-0.9543,-0.9535,-0.963,-0.9631,-0.9632,-0.9614,-0.9614,-0.9615,0,0,0,0,0,-0.9198,-0.9222,-0.9232,-0.9244,-0.9316,-0.9361,-0.937,-0.9399,-0.9399,-0.9412,-0.9441,-0.9454,-0.9535,-0.9526,-0.9537,-0.9549,-0.9629,-0.963,-0.9631,-0.9614,-0.9614,-0.9615,0,0,0,0,0,0,-0.917,-0.9229,-0.924,-0.9282,-0.9316,-0.9366,-0.9383,-0.9398,-0.9432,-0.9432,-0.9465,-0.9476,-0.9512,-0.9534,-0.9523,-0.9582,-0.9583,-0.9586,-0.9566,-0.9566,-0.9567,-0.956,-0.9538,0,0,0,0,0,-0.9169,-0.9202,-0.9251,-0.9283,-0.93,-0.9339,-0.9359,-0.9379,-0.9415,-0.9429,-0.946,-0.9494,-0.9527,-0.9548,-0.9581,-0.9618,-0.9628,-0.9631,-0.9631,-0.9631,-0.9634,-0.9654,-0.9656,-0.9636,-0.9636,-0.9636,0,0,-0.9167,-0.9203,-0.9222,-0.9279,-0.9307,-0.9339,-0.935,-0.9384,-0.9408,-0.9434,-0.9473,-0.9497,-0.9536,-0.9574,-0.9592,-0.9594,-0.9641,-0.9633,-0.9632,-0.9635,-0.9655,-0.9657,-0.9659,-0.9637,-0.9637,-0.9637,0,0,-0.918,-0.9211,-0.9241,-0.927,-0.9313,-0.9339,-0.9346,-0.9394,-0.9411,-0.9451,-0.9471,-0.9499,-0.9556,-0.9583,-0.9604,-0.9627,-0.964,-0.9636,-0.9637,-0.9657,-0.9658,-0.966,-0.9667,-0.967,-0.9639,-0.9639,-0.9639,0,-0.9171,-0.9222,-0.9254,-0.9287,-0.931,-0.9337,-0.9367,-0.9392,-0.9444,-0.9459,-0.9461,-0.9532,-0.9561,-0.9605,-0.9611,-0.9627,-0.9635,-0.9631,-0.9656,-0.9657,-0.9659,-0.9667,-0.967,-0.9638,-0.9638,-0.9638,-0.9638,0,-0.9209,-0.9243,-0.9262,-0.9313,-0.9339,-0.937,-0.9405,-0.9427,-0.9444,-0.9469,-0.9509,-0.9544,-0.9585,-0.9596,-0.9613,-0.9643,-0.9643,-0.9649,-0.9651,-0.966,-0.9668,-0.9671,-0.9637,-0.9637,-0.9637,-0.9638,0,0,-0.9206,-0.9275,-0.9281,-0.9304,-0.9355,-0.9381,-0.9413,-0.9454,-0.9472,-0.9506,-0.9533,-0.958,-0.9587,-0.9611,-0.9631,-0.9648,-0.9663,-0.9653,-0.9654,-0.9653,-0.9697,-0.9692,-0.9695,-0.9672,-0.9673,-0.9673,-0.9694,0,-0.9225,-0.9285,-0.9314,-0.936,-0.9392,-0.9417,-0.9445,-0.9478,-0.9502,-0.9531,-0.9557,-0.959,-0.9597,-0.9611,-0.963,-0.9657,-0.9672,-0.9656,-0.9696,-0.9697,-0.9685,-0.9699,-0.9693,-0.9711,-0.9697,-0.9698,-0.9698,0,-0.9255,-0.9291,-0.9341,-0.9387,-0.9402,-0.9426,-0.9466,-0.9494,-0.9531,-0.9548,-0.9574,-0.9594,-0.9627,-0.9626,-0.9671,-0.966,-0.9677,-0.9693,-0.9695,-0.9699,-0.9698,-0.9703,-0.9718,-0.972,-0.9703,-0.9703,-0.9702,0,-0.9248,-0.9308,-0.9346,-0.9365,-0.942,-0.9437,-0.946,-0.9498,-0.952,-0.9554,-0.9569,-0.9606,-0.9626,-0.9653,-0.9681,-0.9679,-0.9723,-0.9725,-0.9737,-0.9736,-0.9745,-0.9744,-0.9762,-0.9757,-0.9757,-0.9757,-0.9757,0,-0.9266,-0.9295,-0.9344,-0.9366,-0.9399,-0.9433,-0.9464,-0.9489,-0.9522,-0.9549,-0.9573,-0.9598,-0.9634,-0.9662,-0.9685,-0.9718,-0.9727,-0.974,-0.9745,-0.9738,-0.9736,-0.975,-0.9749,-0.9757,-0.9757,-0.9757,-0.9757,0,-0.9263,-0.9297,-0.9339,-0.9389,-0.9402,-0.9424,-0.9465,-0.9488,-0.9513,-0.9547,-0.9557,-0.9596,-0.9631,-0.9663,-0.9709,-0.9723,-0.9757,-0.9764,-0.9745,-0.9748,-0.9758,-0.9756,-0.9785,-0.979,-0.9781,-0.9781,-0.9781,0,-0.9272,-0.9295,-0.9347,-0.9368,-0.9392,-0.9424,-0.9448,-0.9481,-0.9504,-0.9549,-0.9566,-0.9603,-0.9634,-0.9689,-0.9721,-0.9756,-0.9764,-0.9771,-0.9769,-0.976,-0.9763,-0.9761,-0.9764,-0.9771,-0.9771,-0.9771,-0.9771,0,-0.9284,-0.93,-0.9334,-0.9374,-0.9401,-0.9434,-0.9467,-0.9482,-0.9521,-0.9545,-0.9582,-0.9607,-0.9655,-0.9691,-0.973,-0.9752,-0.9767,-0.9771,-0.9776,-0.9768,-0.9756,-0.9762,-0.9745,-0.977,-0.977,-0.977,-0.977,-0.977,-0.9288,-0.9309,-0.935,-0.9386,-0.9415,-0.9445,-0.9469,-0.9497,-0.953,-0.9572,-0.9589,-0.9627,-0.9663,-0.9717,-0.9739,-0.9768,-0.9771,-0.9777,-0.9779,-0.978,-0.9778,-0.9752,-0.9775,-0.9775,-0.9775,-0.9775,-0.9775,0,-0.9301,-0.9328,-0.9362,-0.9408,-0.9436,-0.945,-0.9487,-0.9509,-0.9543,-0.9576,-0.9607,-0.9649,-0.9684,-0.9719,-0.9755,-0.9772,-0.9779,-0.978,-0.9779,-0.9784,-0.9774,-0.9766,-0.9773,-0.9773,-0.9773,-0.9773,-0.9773,-0.9773,-0.9311,-0.9349,-0.9369,-0.942,-0.9447,-0.9485,-0.9505,-0.9533,-0.9559,-0.9606,-0.9636,-0.9659,-0.9692,-0.9732,-0.9764,-0.9773,-0.9785,-0.9784,-0.9795,-0.9785,-0.9785,-0.9784,-0.9777,-0.9786,-0.9786,-0.9802,-0.9802,-0.9803]}]]